TimePDT,TemperatureF,Dew PointF,Humidity,Sea Level PressureIn,VisibilityMPH,Wind Direction,Wind SpeedMPH,Gust SpeedMPH,PrecipitationIn,Events,Conditions,WindDirDegrees,DateUTC
12:53 AM,64.0,41.0,43,29.88,10.0,SSE,3.5,-,N/A,,Clear,160,2013-08-22 07:53:00
1:53 AM,63.0,44.1,50,29.88,10.0,SSE,4.6,-,N/A,,Clear,150,2013-08-22 08:53:00
2:53 AM,57.9,44.1,60,29.87,10.0,SE,3.5,-,N/A,,Clear,130,2013-08-22 09:53:00
3:53 AM,61.0,45.0,56,29.87,10.0,Calm,Calm,-,N/A,,Clear,0,2013-08-22 10:53:00
4:53 AM,57.9,44.1,60,29.87,10.0,Calm,Calm,-,N/A,,Clear,0,2013-08-22 11:53:00
5:53 AM,55.9,44.1,64,29.87,10.0,Calm,Calm,-,N/A,,Clear,0,2013-08-22 12:53:00
6:53 AM,57.0,45.0,64,29.88,10.0,Calm,Calm,-,N/A,,Clear,0,2013-08-22 13:53:00
7:53 AM,64.9,44.1,47,29.88,10.0,South,6.9,-,N/A,,Clear,170,2013-08-22 14:53:00
8:53 AM,68.0,43.0,40,29.89,10.0,West,4.6,-,N/A,,Clear,260,2013-08-22 15:53:00
9:53 AM,71.1,45.0,39,29.88,10.0,Calm,Calm,-,N/A,,Clear,0,2013-08-22 16:53:00
10:53 AM,81.0,44.1,27,29.87,10.0,North,3.5,-,N/A,,Clear,360,2013-08-22 17:53:00
11:53 AM,84.9,43.0,23,29.85,10.0,Variable,4.6,-,N/A,,Clear,0,2013-08-22 18:53:00
12:53 PM,87.1,44.1,22,29.83,10.0,Calm,Calm,-,N/A,,Clear,0,2013-08-22 19:53:00
1:53 PM,87.1,45.0,23,29.81,10.0,West,5.8,-,N/A,,Clear,280,2013-08-22 20:53:00
2:53 PM,86.0,48.9,28,29.81,10.0,WSW,9.2,-,N/A,,Clear,240,2013-08-22 21:53:00
3:53 PM,88.0,46.9,24,29.78,10.0,Variable,4.6,-,N/A,,Clear,0,2013-08-22 22:53:00
4:53 PM,88.0,45.0,22,29.77,10.0,Calm,Calm,-,N/A,,Clear,0,2013-08-22 23:53:00
5:53 PM,87.1,46.0,24,29.78,10.0,SSE,6.9,-,N/A,,Clear,150,2013-08-23 00:53:00
6:53 PM,84.0,46.9,27,29.77,10.0,SSE,4.6,-,N/A,,Clear,150,2013-08-23 01:53:00
7:53 PM,80.1,46.0,30,29.75,10.0,SW,4.6,-,N/A,,Clear,220,2013-08-23 02:53:00
8:53 PM,73.0,48.9,42,29.78,10.0,East,3.5,-,N/A,,Clear,100,2013-08-23 03:53:00
9:53 PM,73.9,46.0,37,29.78,10.0,South,5.8,-,N/A,,Clear,170,2013-08-23 04:53:00
10:53 PM,75.0,46.9,37,29.77,10.0,SSE,6.9,-,N/A,,Clear,160,2013-08-23 05:53:00
11:53 PM,72.0,48.0,43,29.76,10.0,South,9.2,-,N/A,,Clear,190,2013-08-23 06:53:00